User: anonymous   Login
Location: Turtle Rock Observatory
(36.6913°N, 81.9708°W)
Time: 17:05:05
(UTC-05:00)
Language:

Cosmos 1125 Rocket - Orbit

View from above orbital plane
View from above orbital plane
View from above satellite
View from above satellite

Ground track
Ground track

The orbit data is extracted from the following two-line orbital elements,

1 11511U 79078B   17018.18303486  .00000051  00000-0  26194-4 0  9992
2 11511  74.0349 231.0032 0015247 155.3502 204.8383 14.36750082957071
Epoch (UTC): 18 January 2017 04:23:34
Eccentricity: 0.0015247
inclination: 74.0349°
perigee height: 758 km
apogee height: 780 km
right ascension of ascending node: 231.0032°
argument of perigee: 155.3502°
revolutions per day: 14.36750082
mean anomaly at epoch: 204.8383°
orbit number at epoch: 95707

The dashed part of the orbit path shows where the satellite is in the earth's shadow,  

DLR